Weather History for EHVL - November, 2012

Change the Weather History Date:

Saturday, November 3, 2012

  Actual Average Record
Temperature  
Mean Temperature 45 °F -  
Max Temperature 48 °F 52 °F 62 °F (2005)
Min Temperature 42 °F 46 °F 42 °F (2012)
Degree Days  
Heating Degree Days 20    
Moisture  
Dew Point 41 °F    
Average Humidity 86    
Maximum Humidity 93    
Minimum Humidity 66    
Precipitation  
Precipitation 0.00 in - - ()
Sea Level Pressure  
Sea Level Pressure 29.37 in    
Wind  
Wind Speed 19 mph ()    
Max Wind Speed 32 mph    
Max Gust Speed 33 mph    
Visibility 5.9 miles    
Events Rain    
Averages and records for this station are not official NWS values.
T = Trace of Precipitation, MM = Missing Value Source: Averaged Metar Reports

Daily Weather History Graph

Daily Weather History Graph

Search for Another Location

Airport or City:

Trip Planner

Search our weather history database for the weather conditions in past years. The results will help you decide how hot, cold, wet, or windy it might be!

Date:

Astronomy

Nov. 03, 2012 Rise Set
Actual Time 7:43 AM CET 5:03 PM CET
Civil Twilight 7:05 AM CET 5:40 PM CET
Nautical Twilight 6:24 AM CET 6:22 PM CET
Astronomical Twilight 5:44 AM CET 7:02 PM CET
Moon 8:15 PM CET (11/3) 11:52 AM CET (11/3)
Length of Visible Light 10h 35m
Length of Day
9h 20m
Waning Gibbous, 82% of the Moon is Illuminated
Nov 3
Waning Gibbous
Nov 7
Last Quarter
Nov 13
New
Nov 20
First Quarter
Nov 28
Full

Hourly Weather History & Observations

Time (CET) Temp. Windchill Dew Point Humidity Pressure Visibility Wind Dir Wind Speed Gust Speed Precip Events Conditions
12:25 AM 48.2 °F - 37.4 °F 66% 29.36 in 6.2 mi WSW 23.0 mph - N/A   Unknown
12:55 AM 48.2 °F - 39.2 °F 71% 29.36 in 6.2 mi WSW 24.2 mph - N/A   Partly Cloudy
1:25 AM 48.2 °F - 39.2 °F 71% 29.36 in 6.2 mi WSW 21.9 mph - N/A   Mostly Cloudy
1:55 AM 48.2 °F - 37.4 °F 66% 29.36 in 6.2 mi WSW 24.2 mph - N/A   Partly Cloudy
2:25 AM 48.2 °F - 37.4 °F 66% 29.39 in 6.2 mi WSW 25.3 mph - N/A   Partly Cloudy
2:55 AM 48.2 °F - 37.4 °F 66% 29.39 in 6.2 mi WSW 24.2 mph - N/A   Partly Cloudy
3:25 AM 48.2 °F - 37.4 °F 66% 29.39 in 6.2 mi WSW 24.2 mph - N/A   Unknown
3:55 AM 48.2 °F - 37.4 °F 66% 29.39 in 6.2 mi WSW 23.0 mph - N/A   Scattered Clouds
4:25 AM 48.2 °F - 37.4 °F 66% 29.36 in 6.2 mi SW 23.0 mph - N/A   Partly Cloudy
4:55 AM 48.2 °F - 37.4 °F 66% 29.39 in 6.2 mi WSW 21.9 mph - N/A   Unknown
5:25 AM 46.4 °F 39.0 °F 39.2 °F 76% 29.39 in 6.2 mi WSW 19.6 mph - N/A   Partly Cloudy
5:55 AM 44.6 °F 38.1 °F 39.2 °F 81% 29.39 in 6.2 mi SSW 13.8 mph - N/A   Mostly Cloudy
6:25 AM 44.6 °F 36.6 °F 41.0 °F 87% 29.39 in 6.2 mi South 19.6 mph - N/A   Overcast
6:55 AM 44.6 °F 37.4 °F 41.0 °F 87% 29.39 in 6.2 mi South 16.1 mph - N/A   Scattered Clouds
7:25 AM 44.6 °F 37.8 °F 41.0 °F 87% 29.39 in 6.2 mi South 15.0 mph - N/A   Mostly Cloudy
7:55 AM 44.6 °F 36.4 °F 41.0 °F 87% 29.39 in 6.2 mi South 20.7 mph - N/A   Mostly Cloudy
7:59 AM 44.6 °F 35.9 °F 41.0 °F 87% 29.39 in 4.3 mi South 23.0 mph - N/A   Mostly Cloudy
8:05 AM 42.8 °F 34.5 °F 41.0 °F 93% 29.39 in 3.7 mi South 18.4 mph - N/A Rain Light Rain Showers
8:12 AM 42.8 °F 34.8 °F 41.0 °F 93% 29.39 in 6.2 mi South 17.3 mph 28.8 mph N/A Rain Light Rain Showers
8:25 AM 42.8 °F 35.1 °F 41.0 °F 93% 29.39 in 6.2 mi South 16.1 mph - N/A   Partly Cloudy
8:39 AM 44.6 °F 37.2 °F 41.0 °F 87% 29.39 in 6.2 mi South 17.3 mph - N/A   Mostly Cloudy
8:43 AM 44.6 °F 37.4 °F 41.0 °F 87% 29.39 in 6.2 mi South 16.1 mph - N/A   Mostly Cloudy
8:55 AM 44.6 °F 36.6 °F 42.8 °F 93% 29.39 in 6.2 mi South 19.6 mph - N/A   Mostly Cloudy
9:25 AM 44.6 °F 36.1 °F 41.0 °F 87% 29.39 in 6.2 mi South 21.9 mph - N/A   Mostly Cloudy
9:27 AM 44.6 °F 36.1 °F 41.0 °F 87% 29.39 in 6.2 mi South 21.9 mph - N/A   Mostly Cloudy
9:55 AM 44.6 °F 35.7 °F 41.0 °F 87% 29.39 in 6.2 mi South 24.2 mph - N/A   Overcast
10:25 AM 44.6 °F 36.6 °F 42.8 °F 93% 29.39 in 6.2 mi South 19.6 mph - N/A Rain Light Rain Showers
10:29 AM 44.6 °F 36.9 °F 42.8 °F 93% 29.39 in 3.7 mi South 18.4 mph - N/A Rain Light Rain Showers
10:33 AM 44.6 °F 37.2 °F 42.8 °F 93% 29.39 in 5.6 mi South 17.3 mph - N/A Rain Light Rain Showers
10:46 AM 44.6 °F 37.4 °F 42.8 °F 93% 29.39 in 6.2 mi South 16.1 mph - N/A Rain Light Rain
10:55 AM 44.6 °F 37.2 °F 42.8 °F 93% 29.39 in 6.2 mi South 17.3 mph - N/A Rain Light Rain
11:07 AM 44.6 °F 37.2 °F 42.8 °F 93% 29.39 in 6.2 mi South 17.3 mph - N/A Rain Light Rain
11:11 AM 44.6 °F 37.2 °F 42.8 °F 93% 29.39 in 6.2 mi South 17.3 mph - N/A   Mostly Cloudy
11:15 AM 44.6 °F 37.2 °F 42.8 °F 93% 29.39 in 6.2 mi South 17.3 mph - N/A   Mostly Cloudy
11:19 AM 44.6 °F 37.2 °F 42.8 °F 93% 29.39 in 6.2 mi South 17.3 mph - N/A   Mostly Cloudy
11:25 AM 44.6 °F 37.2 °F 42.8 °F 93% 29.36 in 6.2 mi South 17.3 mph - N/A   Mostly Cloudy
11:29 AM 44.6 °F 37.2 °F 42.8 °F 93% 29.36 in 6.2 mi South 17.3 mph - N/A   Mostly Cloudy
11:39 AM 44.6 °F 36.6 °F 42.8 °F 93% 29.36 in 6.2 mi South 19.6 mph - N/A   Mostly Cloudy
11:55 AM 44.6 °F 37.2 °F 42.8 °F 93% 29.36 in 6.2 mi South 17.3 mph - N/A   Mostly Cloudy
11:59 AM 44.6 °F 37.2 °F 42.8 °F 93% 29.36 in 6.2 mi South 17.3 mph - N/A   Mostly Cloudy
12:01 PM 44.6 °F 36.9 °F 42.8 °F 93% 29.36 in 6.2 mi South 18.4 mph - N/A   Mostly Cloudy
12:07 PM 44.6 °F 36.9 °F 42.8 °F 93% 29.36 in 6.2 mi South 18.4 mph - N/A   Mostly Cloudy
12:11 PM 44.6 °F 36.9 °F 42.8 °F 93% 29.36 in 6.2 mi South 18.4 mph - N/A   Mostly Cloudy
12:25 PM 44.6 °F 37.8 °F 42.8 °F 93% 29.36 in 6.2 mi South 15.0 mph - N/A   Mostly Cloudy
12:31 PM 44.6 °F 37.8 °F 42.8 °F 93% 29.36 in 6.2 mi South 15.0 mph - N/A   Mostly Cloudy
12:35 PM 44.6 °F 37.8 °F 42.8 °F 93% 29.36 in 6.2 mi South 15.0 mph - N/A   Mostly Cloudy
12:55 PM 44.6 °F 36.9 °F 42.8 °F 93% 29.36 in 6.2 mi South 18.4 mph - N/A   Overcast
1:20 PM 44.6 °F 36.9 °F 42.8 °F 93% 29.36 in 4.3 mi South 18.4 mph - N/A Rain Light Rain
1:25 PM 44.6 °F 36.9 °F 42.8 °F 93% 29.33 in 5.0 mi South 18.4 mph - N/A Rain Light Rain
1:55 PM 44.6 °F 37.8 °F 42.8 °F 93% 29.33 in 4.3 mi South 15.0 mph - N/A Rain Light Rain
2:12 PM 44.6 °F 35.9 °F 42.8 °F 93% 29.33 in 6.2 mi South 23.0 mph - N/A Rain Light Rain
2:25 PM 44.6 °F 35.7 °F 42.8 °F 93% 29.33 in 5.0 mi South 24.2 mph - N/A Rain Light Rain Showers
2:35 PM 44.6 °F 35.9 °F 42.8 °F 93% 29.33 in 6.2 mi South 23.0 mph - N/A Rain Light Rain
2:50 PM 44.6 °F 35.9 °F 42.8 °F 93% 29.33 in 4.3 mi South 23.0 mph - N/A Rain Light Rain Showers
2:55 PM 44.6 °F 36.1 °F 42.8 °F 93% 29.33 in 5.0 mi South 21.9 mph - N/A Rain Light Rain Showers
3:04 PM 44.6 °F 36.9 °F 42.8 °F 93% 29.33 in 6.2 mi South 18.4 mph - N/A Rain Light Rain
3:08 PM 44.6 °F 37.2 °F 42.8 °F 93% 29.33 in 6.2 mi South 17.3 mph - N/A Rain Light Rain Showers
3:15 PM 44.6 °F 37.4 °F 42.8 °F 93% 29.33 in 6.2 mi South 16.1 mph - N/A Rain Light Rain
3:21 PM 44.6 °F 37.2 °F 42.8 °F 93% 29.33 in 3.1 mi SSW 17.3 mph 33.4 mph N/A Rain Light Rain
3:25 PM 44.6 °F 36.9 °F 42.8 °F 93% 29.33 in - West 18.4 mph - N/A Rain Rain
3:31 PM 42.8 °F 35.8 °F 41.0 °F 93% 29.33 in - West 13.8 mph - N/A Rain Rain Showers
3:40 PM 44.6 °F 38.8 °F 42.8 °F 93% 29.33 in 5.0 mi West 11.5 mph - N/A Rain Rain Showers
3:44 PM 44.6 °F 39.7 °F 42.8 °F 93% 29.33 in 4.3 mi West 9.2 mph - N/A Rain Rain Showers
3:50 PM 44.6 °F 39.7 °F 42.8 °F 93% 29.33 in 6.2 mi WNW 9.2 mph - N/A Rain Light Rain Showers
3:55 PM 44.6 °F 39.2 °F 42.8 °F 93% 29.33 in 6.2 mi WNW 10.4 mph - N/A Rain Light Rain
3:57 PM 44.6 °F 38.8 °F 42.8 °F 93% 29.33 in 6.2 mi West 11.5 mph - N/A Rain Light Rain
4:03 PM 44.6 °F 37.8 °F 42.8 °F 93% 29.33 in 6.2 mi West 15.0 mph - N/A Rain Light Rain
4:13 PM 44.6 °F 37.4 °F 42.8 °F 93% 29.33 in 6.2 mi West 16.1 mph - N/A Rain Light Rain
4:20 PM 44.6 °F 38.1 °F 42.8 °F 93% 29.33 in 6.2 mi West 13.8 mph - N/A Rain Light Rain
4:25 PM 44.6 °F 38.4 °F 42.8 °F 93% 29.33 in 6.2 mi West 12.7 mph - N/A Rain Light Rain
4:30 PM 44.6 °F 38.4 °F 42.8 °F 93% 29.33 in 6.2 mi West 12.7 mph - N/A Rain Light Rain
4:35 PM 44.6 °F 38.8 °F 42.8 °F 93% 29.33 in 6.2 mi West 11.5 mph - N/A Rain Light Rain
4:38 PM 44.6 °F 38.8 °F 42.8 °F 93% 29.36 in 6.2 mi West 11.5 mph - N/A Rain Light Rain
4:43 PM 44.6 °F 38.8 °F 42.8 °F 93% 29.33 in 6.2 mi West 11.5 mph - N/A   Overcast
4:47 PM 44.6 °F 38.4 °F 42.8 °F 93% 29.33 in 6.2 mi WNW 12.7 mph - N/A   Mostly Cloudy
4:55 PM 44.6 °F 38.4 °F 42.8 °F 93% 29.33 in 6.2 mi WNW 12.7 mph - N/A   Overcast
4:57 PM 44.6 °F 38.1 °F 42.8 °F 93% 29.33 in 6.2 mi WNW 13.8 mph - N/A   Overcast
5:05 PM 44.6 °F 37.4 °F 42.8 °F 93% 29.36 in 3.7 mi West 16.1 mph - N/A Rain Light Rain
5:16 PM 44.6 °F 39.2 °F 41.0 °F 87% 29.36 in - West 10.4 mph - N/A Rain Light Rain Showers
5:17 PM 44.6 °F 39.2 °F 41.0 °F 87% 29.36 in 5.6 mi West 10.4 mph - N/A Rain Rain Showers
5:25 PM 44.6 °F 40.2 °F 41.0 °F 87% 29.36 in 6.2 mi West 8.1 mph - N/A Rain Light Rain Showers
5:38 PM 44.6 °F 39.7 °F 41.0 °F 87% 29.36 in 6.2 mi West 9.2 mph - N/A Rain Light Rain
5:39 PM 44.6 °F 38.8 °F 41.0 °F 87% 29.36 in - West 11.5 mph - N/A Rain Rain Showers
5:47 PM 44.6 °F 38.8 °F 41.0 °F 87% 29.36 in 3.1 mi West 11.5 mph - N/A Rain Rain Showers
5:51 PM 44.6 °F 39.7 °F 41.0 °F 87% 29.36 in 5.6 mi WSW 9.2 mph - N/A Rain Rain Showers
5:55 PM 44.6 °F 40.2 °F 41.0 °F 87% 29.36 in 6.2 mi WSW 8.1 mph - N/A Rain Light Rain
6:01 PM 44.6 °F 42.2 °F 41.0 °F 87% 29.36 in 6.2 mi SW 4.6 mph - N/A Rain Light Rain
6:14 PM 44.6 °F 42.2 °F 41.0 °F 87% 29.36 in 6.2 mi WSW 4.6 mph - N/A Rain Light Rain
6:21 PM 42.8 °F 35.4 °F 41.0 °F 93% 29.36 in 6.2 mi West 15.0 mph 31.1 mph N/A   Mostly Cloudy
6:25 PM 44.6 °F 36.1 °F 42.8 °F 93% 29.36 in 6.2 mi West 21.9 mph - N/A   Mostly Cloudy
6:28 PM 44.6 °F 35.9 °F 42.8 °F 93% 29.39 in 6.2 mi West 23.0 mph - N/A   Overcast
6:40 PM 44.6 °F 36.6 °F 42.8 °F 93% 29.39 in 6.2 mi West 19.6 mph - N/A   Mostly Cloudy
6:45 PM 46.4 °F 39.2 °F 42.8 °F 87% 29.39 in 6.2 mi West 18.4 mph 31.1 mph N/A   Mostly Cloudy
6:49 PM 46.4 °F 38.3 °F 42.8 °F 87% 29.39 in 6.2 mi West 23.0 mph - N/A   Mostly Cloudy
6:55 PM 46.4 °F 37.4 °F 42.8 °F 87% 29.39 in 6.2 mi West 28.8 mph - N/A   Mostly Cloudy
7:10 PM 46.4 °F 37.0 °F 41.0 °F 81% 29.39 in 6.2 mi West 31.1 mph - N/A   Scattered Clouds
7:25 PM 46.4 °F 36.9 °F 41.0 °F 81% 29.39 in 6.2 mi West 32.2 mph - N/A   Mostly Cloudy
7:50 PM 46.4 °F 36.9 °F 41.0 °F 81% 29.42 in 6.2 mi West 32.2 mph - N/A   Scattered Clouds
7:55 PM 46.4 °F 37.0 °F 39.2 °F 76% 29.42 in 6.2 mi West 31.1 mph - N/A   Scattered Clouds
8:00 PM 46.4 °F 37.2 °F 41.0 °F 81% 29.42 in 6.2 mi West 29.9 mph - N/A   Scattered Clouds
8:07 PM 48.2 °F - 41.0 °F 76% 29.42 in 6.2 mi West 31.1 mph - N/A   Mostly Cloudy
8:08 PM 46.4 °F 37.0 °F 41.0 °F 81% 29.42 in 6.2 mi West 31.1 mph - N/A   Mostly Cloudy
8:25 PM 46.4 °F 37.0 °F 39.2 °F 76% 29.42 in 6.2 mi West 31.1 mph - N/A   Scattered Clouds
8:34 PM 48.2 °F - 41.0 °F 76% 29.42 in 6.2 mi West 28.8 mph - N/A   Mostly Cloudy
8:44 PM 48.2 °F - 41.0 °F 76% 29.42 in 6.2 mi West 29.9 mph - N/A   Mostly Cloudy
8:55 PM 48.2 °F - 41.0 °F 76% 29.42 in 6.2 mi West 29.9 mph - N/A   Mostly Cloudy
9:25 PM 48.2 °F - 39.2 °F 71% 29.44 in 6.2 mi West 28.8 mph - N/A   Mostly Cloudy
9:55 PM 48.2 °F - 37.4 °F 66% 29.47 in 6.2 mi West 27.6 mph - N/A   Scattered Clouds
10:25 PM 46.4 °F 37.5 °F 37.4 °F 71% 29.47 in 6.2 mi West 27.6 mph - N/A   Partly Cloudy
10:55 PM 46.4 °F 37.9 °F 37.4 °F 71% 29.47 in 6.2 mi West 25.3 mph - N/A   Mostly Cloudy
11:25 PM 48.2 °F - 37.4 °F 66% 29.50 in 6.2 mi WSW 26.5 mph - N/A   Mostly Cloudy
11:55 PM 48.2 °F - 37.4 °F 66% 29.50 in 6.2 mi WSW 24.2 mph - N/A   Partly Cloudy